TimeEST,TemperatureF,Dew PointF,Humidity,Sea Level PressureIn,VisibilityMPH,Wind Direction,Wind SpeedMPH,Gust SpeedMPH,PrecipitationIn,Events,Conditions,WindDirDegrees,DateUTC
12:10 AM,32.0,30.2,93,29.57,2.5,Calm,Calm,-,N/A,,Partly Cloudy,0,2013-02-12 05:10:00
12:17 AM,32.0,30.2,93,29.57,6.0,Calm,Calm,-,N/A,,Partly Cloudy,0,2013-02-12 05:17:00
12:45 AM,30.2,30.2,100,29.58,6.0,SSW,3.5,-,N/A,,Overcast,210,2013-02-12 05:45:00
12:53 AM,32.0,30.0,92,29.58,6.0,Calm,Calm,-,N/A,,Overcast,0,2013-02-12 05:53:00
1:53 AM,32.0,30.9,96,29.56,7.0,Calm,Calm,-,N/A,,Overcast,0,2013-02-12 06:53:00
2:53 AM,32.0,30.0,92,29.53,3.0,Calm,Calm,-,N/A,,Overcast,0,2013-02-12 07:53:00
3:19 AM,32.0,30.2,93,29.55,2.5,Calm,Calm,-,N/A,,Overcast,0,2013-02-12 08:19:00
3:29 AM,32.0,30.2,93,29.54,4.0,SW,4.6,-,N/A,,Overcast,220,2013-02-12 08:29:00
3:53 AM,32.0,30.0,92,29.55,5.0,Calm,Calm,-,0.00,Snow,Light Snow,0,2013-02-12 08:53:00
4:14 AM,32.0,30.2,93,29.53,4.0,Calm,Calm,-,0.00,Rain,Light Freezing Rain,0,2013-02-12 09:14:00
4:23 AM,32.0,30.2,93,29.53,5.0,Calm,Calm,-,0.00,Rain,Light Freezing Rain,0,2013-02-12 09:23:00
4:41 AM,32.0,30.2,93,29.53,6.0,Variable,3.5,-,0.00,,Overcast,0,2013-02-12 09:41:00
4:53 AM,32.0,30.0,92,29.54,7.0,SW,3.5,-,0.00,,Overcast,230,2013-02-12 09:53:00
5:53 AM,30.9,28.9,92,29.55,6.0,West,4.6,-,N/A,,Overcast,270,2013-02-12 10:53:00
6:53 AM,32.0,28.9,88,29.56,6.0,West,3.5,-,N/A,,Overcast,260,2013-02-12 11:53:00
7:53 AM,32.0,30.0,92,29.57,8.0,Calm,Calm,-,N/A,,Clear,0,2013-02-12 12:53:00
8:53 AM,35.1,30.9,85,29.57,10.0,Variable,3.5,-,0.01,,Mostly Cloudy,0,2013-02-12 13:53:00
9:53 AM,37.0,30.9,79,29.58,10.0,Variable,4.6,-,N/A,,Mostly Cloudy,0,2013-02-12 14:53:00
10:53 AM,37.0,30.0,76,29.59,10.0,SW,3.5,-,N/A,,Mostly Cloudy,230,2013-02-12 15:53:00
11:53 AM,42.1,30.0,62,29.58,10.0,WSW,4.6,-,N/A,,Scattered Clouds,240,2013-02-12 16:53:00
12:53 PM,45.0,28.0,52,29.58,10.0,West,9.2,16.1,N/A,,Overcast,270,2013-02-12 17:53:00
1:53 PM,44.1,27.0,51,29.59,10.0,West,8.1,-,N/A,,Overcast,280,2013-02-12 18:53:00
2:53 PM,43.0,26.1,51,29.60,10.0,Variable,4.6,16.1,0.01,,Overcast,0,2013-02-12 19:53:00
3:53 PM,42.1,26.1,53,29.62,10.0,Variable,4.6,-,N/A,,Overcast,0,2013-02-12 20:53:00
4:53 PM,41.0,25.0,53,29.63,10.0,Variable,5.8,-,N/A,,Overcast,0,2013-02-12 21:53:00
5:53 PM,39.9,26.1,58,29.66,10.0,Variable,4.6,-,N/A,,Overcast,0,2013-02-12 22:53:00
6:53 PM,39.9,26.1,58,29.68,10.0,Variable,4.6,-,N/A,,Overcast,0,2013-02-12 23:53:00
7:53 PM,39.0,26.1,60,29.70,10.0,Variable,3.5,-,N/A,,Overcast,0,2013-02-13 00:53:00
8:53 PM,37.9,26.1,62,29.73,10.0,SW,4.6,-,N/A,,Overcast,230,2013-02-13 01:53:00
9:53 PM,37.0,26.1,65,29.76,10.0,Variable,3.5,-,N/A,,Overcast,0,2013-02-13 02:53:00
10:53 PM,34.0,27.0,75,29.76,10.0,Calm,Calm,-,N/A,,Mostly Cloudy,0,2013-02-13 03:53:00
11:53 PM,30.9,27.0,85,29.74,10.0,West,3.5,-,N/A,,Mostly Cloudy,260,2013-02-13 04:53:00